User: anonymous   Login
Location: Alpha Ridge Park
(39.3209°N, 76.9128°W)
Time: 17:56:04
(UTC-04:00)
Language:

deb Explorer IX - Orbit

View from above orbital plane
View from above orbital plane
View from above satellite
View from above satellite

Ground track
Ground track

The orbit data is extracted from the following two-line orbital elements,

1    85U 61004C   19140.48737403  .00000545  00000-0  13590-3 0  9990
2    85  38.7738 228.9635 0400499  36.6515 326.0937 14.19713456875054
Epoch (UTC): 20 May 2019 11:41:49
Eccentricity: 0.0400499
inclination: 38.7738°
perigee height: 538 km
apogee height: 1115 km
right ascension of ascending node: 228.9635°
argument of perigee: 36.6515°
revolutions per day: 14.19713456
mean anomaly at epoch: 326.0937°
orbit number at epoch: 87505

The dashed part of the orbit path shows where the satellite is in the earth's shadow,  

DLR